カタログに戻る

NIMBUS 2

運用中気象SSO
NORAD 2173·PAYLOAD·🇺🇸 United States

打ち上げ May 15, 1966 から Vandenberg Space Force Base

Loading…

次のパス (今後24時間)

TLE

最新Source: Space-Track

元期: Sep 14, 2026, 13:59 UTC

1 02173U 66040A   26257.58298223 -.00000024  00000-0  46927-4 0  9999
2 02173 100.5152 118.3655 0055898  87.6551 301.3470 13.33723420935547

AllMySatでNIMBUS 2をリアルタイム追跡

Download on the App Store